[[{"header":{"parameterUnit":"m.s-1","parameterCategory":1,"la1":30.2992,"la2":30.254,"lo1":-89.0895,"lo2":-89.0443,"dy":0.0025,"dx":0.0025,"nx":19,"ny":19,"refTime":"2026-03-27T03:00:00:Z","depth":0,"parameterNumber":2,"parameterNumberName":"U-component_of_WINDS"},"data":[0,0,0,1.8338,1.8338,1.8336,1.8336,1.8361,1.8361,0,0,0,0,0,0,0,0,0,0,0,1.8353,1.8354,1.8338,1.8338,1.8336,1.8336,1.8361,1.8361,0,0,0,0,0,0,0,0,0,0,0,1.8353,1.8354,1.8354,1.8338,1.8336,1.8336,1.8361,1.8353,0,0,0,0,0,0,0,0,0,0,1.835,1.8378,1.8353,1.8354,1.8338,1.8336,1.8336,1.8352,1.8353,1.8373,0,1.8393,0,1.8377,1.8364,1.8365,0,0,0,1.8327,1.8377,1.8363,1.8354,1.8338,1.8336,1.8334,1.8352,1.8354,1.8375,1.8393,1.8393,1.8378,1.8365,1.8365,1.8512,1.8513,0,0,1.8327,1.8361,1.8362,1.8365,1.8365,1.8334,1.8334,1.8353,1.8375,1.8393,1.8393,1.8378,1.8365,1.8365,1.8511,1.8512,0,0,0,1.8335,1.8361,1.8346,1.8365,1.8362,1.8334,1.8334,1.8374,1.8367,1.8393,1.8379,1.8365,1.8366,1.851,1.8511,1.8603,0,0,0,1.8335,1.8366,1.8347,1.8367,1.8362,1.8368,1.8356,1.8365,1.8366,1.8378,1.8365,1.8366,1.8508,1.8511,1.8598,1.8641,0,0,0,1.8348,1.8367,1.8372,1.8369,1.8369,1.8367,1.836,1.8365,1.8358,1.8365,1.8367,1.8507,1.851,1.8593,1.8633,1.869,0,0,0,1.8372,1.8452,1.8374,1.8458,1.837,1.8423,1.8359,1.8397,1.8414,1.8366,1.8508,1.8511,1.8591,1.8628,1.8686,1.8745,1.8773,0,0,1.8491,1.8468,1.8514,1.8444,1.852,1.8421,1.851,1.8494,1.8464,1.8498,1.8502,1.8599,1.8632,1.8689,1.8916,1.8939,0,0,0,1.8564,1.8598,1.8611,1.8628,1.8618,1.8613,1.858,1.8574,1.8602,1.8488,1.8634,1.8653,1.8685,1.8712,1.8731,1.8758,1.8525,1.8525,1.8524,1.8779,1.8738,1.8813,1.8773,1.8791,1.8757,1.8769,1.8756,1.8707,1.8744,1.8753,1.8896,1.8929,1.8943,1.8971,1.8781,1.8781,1.8782,1.8782,1.8951,1.8993,1.893,1.898,1.8938,1.898,1.8952,1.8918,1.8952,1.8884,1.8911,1.884,1.8969,1.8991,1.8788,1.8787,1.8786,1.8786,1.8785,1.9087,1.9101,1.9093,1.9116,1.9139,1.9096,1.9133,1.9092,1.9054,1.908,1.9088,1.9086,1.908,1.9087,1.9087,1.9088,1.9088,1.9088,1.9089,1.9232,1.9221,1.9256,1.9255,1.9262,1.9267,1.9237,1.9244,1.9241,1.9209,1.9208,1.9159,1.8988,1.8947,1.9096,1.9095,1.9094,1.9093,1.9093,1.9421,1.9373,1.9428,1.9436,1.9432,1.946,1.9408,1.9426,1.9426,1.9447,1.9392,1.9273,1.9245,1.923,1.9195,1.94,1.94,1.94,1.94,1.9537,1.952,1.9568,1.9584,1.9595,1.9555,1.9622,1.9601,1.9572,1.957,1.9535,1.9486,1.9472,1.9452,1.9432,1.9399,1.9651,1.9651,1.9652,1.9652,1.9634,1.9697,1.9668,1.9663,1.9661,1.9724,1.9747,1.9703,1.9661,1.9568,1.9558,1.9478,1.9453,1.9408,1.9378,1.9317,0,0]},{"header":{"parameterUnit":"m.s-1","parameterCategory":1,"la1":30.2992,"la2":30.254,"lo1":-89.0895,"lo2":-89.0443,"dy":0.0025,"dx":0.0025,"nx":19,"ny":19,"refTime":"2026-03-27T03:00:00:Z","depth":0,"parameterNumber":3,"parameterNumberName":"V-component_of_WINDS"},"data":[0,0,0,-3.9458,-3.946,-3.9581,-3.9581,-3.9699,-3.97,0,0,0,0,0,0,0,0,0,0,0,-3.9405,-3.9405,-3.9458,-3.9461,-3.9581,-3.9581,-3.9699,-3.97,0,0,0,0,0,0,0,0,0,0,0,-3.9405,-3.9405,-3.9405,-3.9461,-3.9581,-3.9581,-3.9699,-3.962,0,0,0,0,0,0,0,0,0,0,-3.9509,-3.9443,-3.9405,-3.9405,-3.9462,-3.958,-3.9582,-3.9617,-3.9625,-3.9631,0,-3.9636,0,-3.967,-3.9706,-3.9707,0,0,0,-3.9472,-3.9436,-3.9486,-3.9405,-3.9463,-3.958,-3.953,-3.9622,-3.9631,-3.9642,-3.9638,-3.9643,-3.9672,-3.9707,-3.9707,-3.9716,-3.9715,0,0,-3.9465,-3.9415,-3.9479,-3.9491,-3.9475,-3.9526,-3.9533,-3.9628,-3.9618,-3.9638,-3.9646,-3.9674,-3.9707,-3.9708,-3.9716,-3.9716,0,0,0,-3.9439,-3.941,-3.9458,-3.9485,-3.951,-3.9529,-3.9538,-3.9614,-3.9634,-3.9648,-3.9675,-3.9708,-3.9709,-3.9717,-3.9716,-3.9644,0,0,0,-3.9435,-3.9395,-3.9454,-3.9425,-3.9508,-3.9564,-3.9521,-3.9627,-3.964,-3.9675,-3.9708,-3.971,-3.9718,-3.9717,-3.9647,-3.9615,0,0,0,-3.9403,-3.9391,-3.9403,-3.9422,-3.9473,-3.9564,-3.959,-3.9631,-3.9656,-3.9707,-3.971,-3.9718,-3.9717,-3.965,-3.962,-3.9603,0,0,0,-3.9352,-3.9333,-3.9401,-3.9391,-3.9471,-3.9521,-3.959,-3.9628,-3.9663,-3.9708,-3.9718,-3.9716,-3.9651,-3.9623,-3.9605,-3.9576,-3.9561,0,0,-3.93,-3.9325,-3.9324,-3.9388,-3.9413,-3.9506,-3.9519,-3.9596,-3.9644,-3.9688,-3.9689,-3.9646,-3.9621,-3.9603,-3.9497,-3.9484,0,0,0,-3.929,-3.9287,-3.9305,-3.934,-3.9402,-3.9452,-3.9534,-3.9563,-3.9605,-3.9658,-3.9638,-3.9624,-3.9616,-3.9604,-3.9593,-3.9588,-3.971,-3.971,-3.971,-3.9138,-3.9208,-3.9209,-3.9293,-3.9326,-3.9414,-3.9445,-3.9498,-3.9553,-3.9548,-3.9559,-3.9487,-3.9472,-3.9464,-3.9458,-3.9553,-3.9553,-3.9553,-3.9552,-3.9065,-3.9072,-3.9155,-3.9185,-3.9257,-3.9282,-3.9366,-3.9406,-3.9437,-3.9483,-3.9479,-3.952,-3.9448,-3.9446,-3.9548,-3.9548,-3.9549,-3.9549,-3.955,-3.897,-3.8986,-3.9027,-3.9088,-3.9125,-3.9211,-3.924,-3.9304,-3.9363,-3.936,-3.9378,-3.938,-3.9386,-3.9365,-3.9365,-3.9365,-3.9365,-3.9364,-3.9364,-3.8853,-3.8903,-3.8922,-3.8992,-3.9025,-3.9075,-3.9168,-3.92,-3.9251,-3.9294,-3.9295,-3.9349,-3.9431,-3.9448,-3.9361,-3.9361,-3.9362,-3.9362,-3.9362,-3.8745,-3.8782,-3.8811,-3.8844,-3.8934,-3.8967,-3.9053,-3.9113,-3.9149,-3.9161,-3.9219,-3.9271,-3.9298,-3.9307,-3.9322,-3.9207,-3.9207,-3.9207,-3.9207,-3.8662,-3.8686,-3.8732,-3.8782,-3.8838,-3.892,-3.8947,-3.9019,-3.9098,-3.9124,-3.9152,-3.9178,-3.9184,-3.9208,-3.9219,-3.9233,-3.9098,-3.9098,-3.9098,-3.8598,-3.8632,-3.8643,-3.8729,-3.8806,-3.8868,-3.8895,-3.8945,-3.9042,-3.9095,-3.9145,-3.915,-3.9193,-3.9204,-3.925,-3.9266,-3.9293,0,0]}]]